Weather reports worldwide

Advertisment
Schleswig, Germany (10035): temperature & dewpoint: 12.01.2020 13:00:00 - 18.01.2020 13:00:00 (CET)Schleswig, Germany (10035): temperature 5cm & temperature -5cm: 12.01.2020 13:00:00 - 18.01.2020 13:00:00 (CET)Schleswig, Germany (10035): temperature -20cm & temperature -100cm: 12.01.2020 13:00:00 - 18.01.2020 13:00:00 (CET)Schleswig, Germany (10035): wind speed & gusts: 12.01.2020 13:00:00 - 18.01.2020 13:00:00 (CET)Schleswig, Germany (10035): wind direction: 12.01.2020 13:00:00 - 18.01.2020 13:00:00 (CET)Schleswig, Germany (10035): reduced air pressure: 12.01.2020 13:00:00 - 18.01.2020 13:00:00 (CET)Schleswig, Germany (10035): visibility: 12.01.2020 13:00:00 - 18.01.2020 13:00:00 (CET)Schleswig, Germany (10035): sunshine duration: 12.01.2020 13:00:00 - 18.01.2020 13:00:00 (CET)Schleswig, Germany (10035): precipitation: 12.01.2020 13:00:00 - 18.01.2020 13:00:00 (CET)
Date & Time tt [°C] td [°C] tt 5cm [°C] tt -5cm [°C] tt -20cm [°C] tt -100cm [°C] ff [km/h] ff [kn] fx [km/h] fx [kn] dd ppp [hPa] vv [km] sd [min] rr [mm]
18.01.2020 13:00:00 5,4 3,8 5,5 5,4 5,3 6,9 19 11 41 22 WSW 1017,4 40 0 0,0
18.01.2020 12:00:00 5,1 3,8 5,0 5,1 5,3 6,9 20 11 46 25 SW 1016,9 27 0 0,0
18.01.2020 11:00:00 4,9 3,1 4,6 4,6 5,3 6,9 26 14 55 30 SW 1016,3 26 0 0,0
18.01.2020 10:00:00 5,0 3,1 4,4 4,5 5,4 6,9 24 13 50 27 SW 1015,9 19 1 0,0
18.01.2020 09:00:00 4,9 2,9 4,1 4,2 5,4 6,9 27 14 49 26 SW 1015,4 26 0 0,0
18.01.2020 08:00:00 5,2 3,4 4,5 4,3 5,5 6,9 23 12 47 26 SW 1015,0 27 0 0,0
18.01.2020 07:00:00 4,4 3,0 3,2 4,2 5,6 6,9 19 10 48 26 SW 1014,6 27 0 0,0
18.01.2020 06:00:00 5,1 3,2 4,1 4,9 5,7 6,9 25 13 53 29 WSW 1014,1 34 0 0,0
18.01.2020 05:00:00 5,5 3,2 4,6 5,1 5,7 6,9 27 15 55 30 WSW 1013,6 35 0 0,0
18.01.2020 04:00:00 5,5 4,2 4,8 5,3 5,7 6,9 26 14 50 27 WSW 1013,1 15 0 0,0
18.01.2020 03:00:00 5,7 4,4 5,1 5,4 5,8 6,9 23 12 53 29 SW 1012,6 22 0 0,0
18.01.2020 02:00:00 6,2 3,8 5,4 5,6 5,8 6,9 26 14 51 28 SW 1012,2 36 0 0,0
18.01.2020 01:00:00 7,0 5,0 6,2 5,9 5,8 6,9 24 13 45 24 SW 1011,7 22 0 0,0
18.01.2020 00:00:00 7,1 6,1 6,1 6,0 5,7 6,9 16 9 34 18 SW 1011,5 11 0 0,0
17.01.2020 23:00:00 7,6 6,6 6,9 6,4 5,7 6,9 20 11 40 22 WSW 1011,5 13 0 0,0
17.01.2020 22:00:00 7,5 7,3 7,1 6,4 5,6 6,9 13 7 26 14 SW 1011,1 3,5 0 0,5
17.01.2020 21:00:00 7,3 7,0 6,9 6,3 5,6 7,0 15 8 23 13 SSW 1011,2 2,8 0 0,8
17.01.2020 20:00:00 7,3 7,0 6,9 6,2 5,5 7,0 11 6 22 12 SSW 1011,5 4,2 0 0,6
17.01.2020 19:00:00 7,4 6,8 6,8 6,1 5,4 7,0 13 7 28 15 SSW 1011,5 6 0 0,1
17.01.2020 18:00:00 8,4 5,2 7,7 6,0 5,3 7,0 13 7 24 13 SSW 1011,7 29 0 0,0
17.01.2020 17:00:00 8,6 4,9 7,8 6,1 5,2 7,0 12 6 23 12 SSW 1011,7 38 0 0,0
17.01.2020 16:00:00 8,9 5,0 8,1 6,2 5,1 7,0 11 6 25 13 S 1011,5 41 7 0,0
17.01.2020 15:00:00 9,5 4,9 9,2 6,5 4,9 7,0 13 7 31 17 S 1011,7 48 41 0,0
17.01.2020 14:00:00 9,7 4,7 9,8 6,7 4,6 7,0 16 8 31 17 SSW 1012,4 43 47 0,0
17.01.2020 13:00:00 9,2 4,5 9,6 5,6 4,4 7,0 13 7 33 18 S 1013,3 54 41 0,0
17.01.2020 12:00:00 8,6 4,2 7,7 4,7 4,3 7,0 18 10 35 19 S 1014,0 48 60 0,0
17.01.2020 11:00:00 7,0 3,9 5,7 3,6 4,3 7,0 14 8 30 16 SSW 1014,6 37 46 0,0
17.01.2020 10:00:00 6,1 3,7 4,5 2,9 4,4 7,0 15 8 25 13 S 1014,8 38 15 0,0
17.01.2020 09:00:00 5,5 3,4 3,7 2,6 4,4 7,0 11 6 23 13 SSE 1015,4 30 0 0,0
17.01.2020 08:00:00 5,6 3,6 3,5 2,6 4,5 7,0 10 6 22 12 S 1015,5 31 0 0,0
17.01.2020 07:00:00 5,3 3,7 3,2 2,5 4,6 6,9 10 5 19 10 S 1016,3 29 0 0,0
17.01.2020 06:00:00 4,9 3,6 2,6 2,5 4,7 6,9 8 5 16 9 S 1016,8 26 0 0,0
17.01.2020 05:00:00 4,9 3,6 3,0 2,7 4,8 6,9 9 5 21 11 SSE 1017,6 24 0 0,0
17.01.2020 04:00:00 5,3 3,7 3,6 2,8 4,9 6,9 10 5 22 12 S 1018,2 24 0 0,0
17.01.2020 03:00:00 5,4 3,8 3,3 2,8 5,0 6,9 10 5 19 11 S 1019,0 27 0 0,0
17.01.2020 02:00:00 5,1 3,8 3,3 2,9 5,1 6,9 10 5 20 11 S 1019,7 23 0 0,0
17.01.2020 01:00:00 5,2 3,8 3,5 3,1 5,2 6,9 11 6 20 11 SSE 1020,3 16 0 0,0
17.01.2020 00:00:00 5,3 3,7 3,6 3,2 5,4 6,9 11 6 23 12 S 1020,8 28 0 0,0
16.01.2020 23:00:00 5,2 3,4 3,4 3,4 5,5 6,9 13 7 26 14 S 1021,2 32 0 0,0
16.01.2020 22:00:00 5,6 3,4 4,0 3,6 5,7 6,9 15 8 34 18 S 1021,8 32 0 0,0
16.01.2020 21:00:00 5,8 3,5 4,2 3,7 5,8 6,9 18 10 30 16 S 1022,6 32 0 0,0
16.01.2020 20:00:00 5,4 3,7 3,7 3,8 6,0 6,9 13 7 25 13 SSE 1023,3 21 0 0,0
16.01.2020 19:00:00 5,2 3,9 3,4 4,0 6,2 6,9 10 5 22 12 S 1023,9 17 0 0,0
16.01.2020 18:00:00 5,4 4,1 3,7 4,4 6,3 6,9 10 6 19 10 SSE 1023,9 15 0 0,0
16.01.2020 17:00:00 5,8 4,3 3,9 5,2 6,4 6,9 9 5 20 11 S 1024,2 14 0 0,0
16.01.2020 16:00:00 6,9 4,6 5,9 6,4 6,4 6,9 13 7 28 15 SSW 1024,6 17 40 0,0
16.01.2020 15:00:00 7,8 5,2 7,2 7,0 6,3 6,9 13 7 22 12 SSW 1024,5 20 43 0,0
16.01.2020 14:00:00 7,4 5,3 7,4 7,0 6,1 6,9 11 6 28 15 SSW 1024,6 15 2 0,0
16.01.2020 13:00:00 7,1 5,1 7,0 6,8 6,0 6,8 16 9 33 18 SW 1024,8 15 0 0,0
16.01.2020 12:00:00 6,6 4,9 6,3 6,1 6,0 6,8 19 10 38 20 SW 1024,7 13 4 0,0
16.01.2020 11:00:00 6,1 4,6 5,7 5,7 6,0 6,8 19 10 33 18 SW 1024,3 11 0 0,0
16.01.2020 10:00:00 5,7 4,7 5,1 4,9 6,1 6,8 16 9 45 25 SW 1023,9 11 0 0,0
16.01.2020 09:00:00 5,4 4,3 4,2 4,7 6,2 6,8 19 10 37 20 SW 1022,9 12 0 0,0
16.01.2020 08:00:00 5,9 4,6 5,2 5,5 6,2 6,8 16 9 37 20 SW 1022,0 13 0 0,0
16.01.2020 07:00:00 6,4 5,0 5,7 5,7 6,2 6,8 21 11 40 22 SW 1021,4 15 0 0,0
16.01.2020 06:00:00 6,4 5,2 5,7 5,7 6,2 6,8 18 10 43 23 WSW 1020,8 15 0 0,0
16.01.2020 05:00:00 6,6 5,4 6,0 5,6 6,3 6,8 18 10 39 21 WSW 1019,9 17 0 0,0
16.01.2020 04:00:00 6,2 5,1 5,5 5,3 6,3 6,8 18 10 40 21 SW 1018,8 20 0 0,0
16.01.2020 03:00:00 6,4 5,4 5,7 5,5 6,4 6,8 21 11 39 21 SW 1018,5 19 0 0,0
16.01.2020 02:00:00 6,3 5,0 5,7 5,1 6,5 6,8 21 12 42 23 SW 1017,5 25 0 0,0
16.01.2020 01:00:00 5,6 4,6 4,4 4,5 6,7 6,7 21 11 40 22 WSW 1016,7 27 0 0,0
16.01.2020 00:00:00 5,6 4,3 4,4 4,7 6,9 6,7 20 11 41 22 WSW 1015,7 31 0 0,0
15.01.2020 23:00:00 5,5 4,4 4,2 5,0 7,1 6,7 18 10 34 18 WSW 1014,5 32 0 0,0
15.01.2020 22:00:00 5,8 4,4 4,4 5,8 7,3 6,7 17 9 35 19 WSW 1013,4 39 0 0,0
15.01.2020 21:00:00 6,2 4,4 4,9 6,6 7,4 6,7 16 9 32 17 WSW 1012,1 50 0 0,0
15.01.2020 20:00:00 6,2 4,7 5,4 7,2 7,5 6,7 20 11 41 22 W 1010,3 55 0 0,0
15.01.2020 19:00:00 8,0 6,9 7,4 8,0 7,5 6,7 21 12 58 32 W 1008,8 13 0 0,6
15.01.2020 18:00:00 9,4 7,4 8,2 8,1 7,5 6,7 29 16 57 31 SW 1007,0 36 0 0,9
15.01.2020 17:00:00 9,8 7,3 8,3 8,3 7,5 6,7 24 13 56 31 SW 1006,3 14 0 0,6
15.01.2020 16:00:00 10,8 6,7 9,4 8,4 7,5 6,7 25 14 55 30 SW 1006,0 30 0 0,0
15.01.2020 15:00:00 11,1 6,5 10,4 8,6 7,5 6,7 23 12 61 33 SW 1005,5 59 0 0,0
15.01.2020 14:00:00 11,6 6,3 10,9 8,7 7,4 6,7 32 17 65 35 SW 1005,4 54 0 0,0
15.01.2020 13:00:00 11,7 6,4 11,0 8,7 7,4 6,7 34 18 60 33 SW 1005,5 55 0 0,0
15.01.2020 12:00:00 11,6 6,4 11,0 8,7 7,4 6,6 28 15 56 30 SSW 1005,2 61 0 0,0
15.01.2020 11:00:00 11,7 6,4 11,1 8,6 7,3 6,6 32 17 57 31 SW 1004,7 62 0 0,0
15.01.2020 10:00:00 11,8 6,6 11,0 8,7 7,3 6,6 32 18 62 34 SSW 1004,1 61 0 0,0
15.01.2020 09:00:00 11,8 7,0 11,1 8,7 7,2 6,6 31 17 60 33 SSW 1003,2 63 0 0,0
15.01.2020 08:00:00 11,9 7,4 11,1 8,7 7,2 6,6 29 16 67 36 SSW 1002,4 75 0 0,0
15.01.2020 07:00:00 11,6 7,7 10,9 8,7 7,1 6,6 31 17 69 37 SW 1002,4 63 0 0,0
15.01.2020 06:00:00 11,1 8,2 10,4 8,7 7,0 6,6 29 16 63 34 SW 1002,2 65 0 0,0
15.01.2020 05:00:00 11,0 8,5 10,4 8,7 6,9 6,6 33 18 69 38 SSW 1001,8 64 0 0,0
15.01.2020 04:00:00 11,1 8,3 10,5 8,6 6,8 6,6 33 18 68 37 SSW 1001,6 50 0 0,0
15.01.2020 03:00:00 11,3 8,0 10,6 8,6 6,7 6,6 34 18 64 35 SW 1001,3 64 0 0,0
15.01.2020 02:00:00 10,9 8,5 9,7 8,5 6,6 6,6 34 18 64 35 SSW 1001,0 9 0 0,0
15.01.2020 01:00:00 11,2 8,0 10,5 8,3 6,5 6,6 32 18 60 32 SSW 1000,6 51 0 0,0
15.01.2020 00:00:00 10,9 7,9 10,1 8,1 6,4 6,6 33 18 59 32 SSW 1000,5 55 0 0,0
14.01.2020 23:00:00 10,8 7,7 9,4 7,9 6,3 6,6 34 18 57 31 SSW 1000,0 48 0 0,0
14.01.2020 22:00:00 9,8 7,4 8,5 7,5 6,3 6,6 28 15 51 28 SSW 1000,2 44 0 0,0
14.01.2020 21:00:00 9,0 7,7 8,1 7,4 6,2 6,6 29 15 56 30 SSW 1000,1 29 0 0,4
14.01.2020 20:00:00 9,1 7,6 8,1 7,3 6,1 6,6 29 16 46 25 SSW 1000,6 11 0 0,0
14.01.2020 19:00:00 8,8 7,6 8,1 7,1 6,1 6,6 22 12 53 29 S 1001,3 21 0 0,0
14.01.2020 18:00:00 8,9 7,3 8,1 6,8 6,1 6,6 21 12 42 23 SSW 1002,2 20 0 0,0
14.01.2020 17:00:00 8,4 6,5 7,5 6,6 6,1 6,6 16 9 34 19 SSW 1002,4 55 0 0,0
14.01.2020 16:00:00 8,2 6,2 7,2 6,7 6,0 6,6 18 10 44 24 SW 1002,7 45 7 0,0
14.01.2020 15:00:00 8,4 5,9 7,6 7,2 5,9 6,6 19 10 44 24 SW 1002,5 39 0 0,0
14.01.2020 14:00:00 8,8 6,4 8,6 7,5 5,7 6,6 22 12 46 25 WSW 1002,5 38 5 0,0
14.01.2020 13:00:00 8,5 6,1 8,1 6,8 5,7 6,6 20 11 35 19 WSW 1002,2 38 53 0,0
14.01.2020 12:00:00 7,5 5,7 6,3 6,4 5,6 6,6 19 10 35 19 SW 1001,8 41 16 0,1
14.01.2020 11:00:00 6,9 5,8 6,3 6,5 5,5 6,6 19 10 49 26 SW 1001,2 30 0 0,6
14.01.2020 10:00:00 8,3 8,1 7,8 6,7 5,4 6,6 23 12 47 25 SW 1000,3 2,3 0 1,5
14.01.2020 09:00:00 8,0 7,3 7,3 6,4 5,3 6,6 24 13 50 27 SSW 999,4 12 0 1,4
14.01.2020 08:00:00 7,8 7,0 7,0 6,1 5,1 6,6 29 15 55 30 SSW 999,4 13 0 1,4
14.01.2020 07:00:00 7,4 6,6 6,6 5,8 5,1 6,6 28 15 51 28 SSW 999,5 11 0 1,9
14.01.2020 06:00:00 6,9 6,1 6,1 5,4 5,0 6,6 24 13 48 26 S 1000,2 8 0 1,8
14.01.2020 05:00:00 6,9 5,0 5,9 5,1 4,9 6,6 25 13 48 26 S 1000,9 19 0 0,1
14.01.2020 04:00:00 6,8 4,1 6,1 4,8 4,9 6,6 22 12 44 24 S 1001,9 38 0 0,0
14.01.2020 03:00:00 6,2 3,6 5,7 4,6 4,9 6,6 22 12 42 23 S 1003,4 36 0 0,0
14.01.2020 02:00:00 5,9 3,4 5,4 4,4 4,9 6,6 22 12 45 25 S 1004,6 34 0 0,0
14.01.2020 01:00:00 5,5 3,0 5,0 4,2 4,9 6,6 19 10 40 22 S 1005,6 35 0 0,0
14.01.2020 00:00:00 5,3 3,0 4,7 3,9 5,0 6,6 22 12 39 21 S 1006,6 35 0 0,0
13.01.2020 23:00:00 5,2 3,2 4,4 3,7 5,1 6,6 22 12 36 20 S 1008,4 29 0 0,0
13.01.2020 22:00:00 4,7 3,3 3,4 3,5 5,2 6,6 17 9 28 15 S 1009,1 16 0 0,0
13.01.2020 21:00:00 4,4 3,3 3,1 3,8 5,3 6,6 13 7 28 15 S 1010,3 11 0 0,0
13.01.2020 20:00:00 5,4 4,0 4,6 4,4 5,4 6,6 16 9 26 14 S 1011,2 13 0 0,0
13.01.2020 19:00:00 5,5 4,2 4,9 4,6 5,4 6,6 13 7 25 13 S 1012,3 14 0 0,0
13.01.2020 18:00:00 5,9 4,2 4,7 5,0 5,4 6,6 11 6 23 12 S 1013,2 16 0 0,0
13.01.2020 17:00:00 5,7 4,0 4,8 5,1 5,5 6,6 7 4 20 11 SSW 1013,7 19 0 0,0
13.01.2020 16:00:00 6,1 3,6 5,2 5,5 5,4 6,6 13 7 32 18 SW 1014,0 22 0 0,0
13.01.2020 15:00:00 6,2 4,5 5,6 5,8 5,4 6,6 14 8 29 16 SW 1014,5 15 0 0,0
13.01.2020 14:00:00 6,2 4,9 5,7 5,8 5,3 6,6 15 8 29 16 WSW 1015,2 13 0 0,0
13.01.2020 13:00:00 6,1 5,0 5,6 5,7 5,2 6,6 14 8 29 16 SW 1015,8 11 0 0,0
13.01.2020 12:00:00 5,7 4,8 5,3 5,4 5,2 6,6 14 7 26 14 SSW 1016,4 10 0 0,0
13.01.2020 11:00:00 5,2 4,6 4,9 5,0 5,2 6,6 13 7 24 13 SW 1017,0 7 2 0,0
13.01.2020 10:00:00 4,8 4,3 4,6 4,8 5,2 6,6 13 7 26 14 SSW 1016,9 14 2 0,0
13.01.2020 09:00:00 4,7 4,3 4,3 4,8 5,2 6,6 16 9 23 13 SSW 1017,2 11 0 0,0
13.01.2020 08:00:00 5,1 4,6 4,7 4,9 5,2 6,6 11 6 23 13 SSW 1016,8 10 0 0,0
13.01.2020 07:00:00 5,4 5,1 5,0 4,8 5,2 6,6 10 6 35 19 SW 1017,1 8 0 0,0
13.01.2020 06:00:00 5,1 4,9 4,8 4,6 5,3 6,6 16 9 29 16 SW 1016,9 6 0 0,0
13.01.2020 05:00:00 5,0 4,6 4,4 4,2 5,3 6,6 16 8 28 15 SW 1016,9 11 0 0,0
13.01.2020 04:00:00 5,1 4,6 3,6 4,5 5,4 6,6 9 5 21 12 WSW 1017,0 17 0 0,0
13.01.2020 03:00:00 5,8 5,0 4,6 5,0 5,5 6,6 13 7 27 15 WSW 1016,8 20 0 0,0
13.01.2020 02:00:00 5,9 5,1 4,6 5,2 5,5 6,6 13 7 29 16 W 1016,6 24 0 0,0
13.01.2020 01:00:00 6,6 6,1 6,0 5,5 5,5 6,6 18 10 33 18 W 1016,0 19 0 0,0
13.01.2020 00:00:00 6,7 6,5 6,0 5,7 5,5 6,6 15 8 26 14 W 1015,3 17 0 0,0
12.01.2020 23:00:00 6,7 6,5 6,3 5,9 5,5 6,6 14 8 28 15 W 1014,4 15 0 0,0
12.01.2020 22:00:00 6,7 6,7 6,2 5,9 5,4 6,6 11 6 25 14 W 1013,5 14 0 0,0
12.01.2020 21:00:00 6,8 6,6 6,4 5,9 5,4 6,6 13 7 32 17 W 1012,4 10 0 0,0
12.01.2020 20:00:00 7,1 6,8 6,6 6,0 5,3 6,6 16 9 36 19 W 1011,5 15 0 1,9
12.01.2020 19:00:00 7,2 7,0 6,7 5,9 5,2 6,6 18 10 53 29 WSW 1010,9 2,5 0 1,3
12.01.2020 18:00:00 7,0 6,4 6,5 5,7 5,1 6,6 30 16 68 37 SW 1009,9 3,8 0 0,4
12.01.2020 17:00:00 6,3 5,8 5,8 5,3 5,1 6,6 25 13 57 31 SW 1010,2 9 0 0,7
12.01.2020 16:00:00 5,4 5,1 5,0 5,1 5,1 6,6 22 12 47 25 SW 1010,8 3,7 0 1,4
12.01.2020 15:00:00 5,1 4,7 4,8 5,1 5,1 6,6 22 12 42 23 SW 1011,4 11 0 0,8
12.01.2020 14:00:00 5,0 4,6 4,8 5,0 5,1 6,6 23 12 47 26 SW 1012,3 6 0 1,5
12.01.2020 13:00:00 4,9 4,5 4,7 5,0 5,1 6,6 23 12 45 24 SW 1013,0 4,0 0 0,9

tt = temperature
td = dewpoint
tt 5cm = temperature 5cm
tt -5cm = temperature -5cm
tt -20cm = temperature -20cm
tt -100cm = temperature -100cm
ff = wind speed
fx = gusts
dd = wind direction
ppp = reduced air pressure
vv = visibility
sd = sunshine duration
rr = precipitation

Next stations